Location: Waco, TX
(31.5480°N, 97.1670°W)
Time: 15:40:01
(UTC-05:00)

ISS - Pass Details

Date: 16 March 2018
Orbit: 403 x 408 km, 51.6° (Epoch: 20 September)

Event Time Altitude Azimuth Distance (km) Brightness Sun altitude
Rises 23:35:24 0° 231° (SW) 2,360 - -48.3°
Reaches altitude 10° 23:37:31 10° 235° (SW) 1,499 - -48.7°
Maximum altitude 23:40:51 61° 316° (NW) 480 - -49.2°
Drops below altitude 10° 23:44:12 10° 38° (NE) 1,505 - -49.7°
Sets 23:46:19 0° 42° (NE) 2,370 - -50.1°
